Spokane Fairchild, WA
on Friday, November 16, 2012

Friday
Previous Day Next Day
Daily Summary
 ActualAverage (KGEG)Record (KGEG)
Temperature
Mean Temperature °F 36°F  
Max Temperature 43°F 41°F 61°F (1919)
Min Temperature 32°F 30°F -6°F (1955)
Degree Days
Heating Degree Days 28 29  
Month to date heating degree days 426  
Since 1 July heating degree days 1214  
Cooling Degree Days 0 0  
Month to date cooling degree days 0  
Year to date cooling degree days 450  
Moisture
Dew Point 36°F   
Average Humidity 100    
Maximum Humidity 100    
Minimum Humidity 99    
Precipitation
Precipitation 0.00 in 0.08 in 0.76 in (1953)
Month to date precipitation 1.15  
Year to date precipitation 13.11  
Snow
Snow 0.00 in 0.30 in 3.30 in (1996)
Month to date snowfall 2.5  
Since 1 July snowfall 2.6  
Since 1 September snowfall 2.6  
Snow Depth in   
Wind
Wind Speed 4 mph   
Max Wind Speed 9 mph   
Max Gust Speed mph   
Visibility 7 miles   
Events     

Key: T is trace of precipitation, MM is missing value
Source: NWS Daily Summary
Time(PST)TemperatureDew PointHumidity Pressure Visibility Wind DirectionWind SpeedGust SpeedPrecipitationEvents Conditions
12:02 AM 32.0°F 32.0°F 100% 29.97 in 10.0 miles NNE 4.6 mph - N/A   Overcast
12:17 AM 32.0°F 32.0°F 100% 29.97 in 10.0 miles ENE 4.6 mph - N/A   Overcast
12:19 AM 32.0°F 32.0°F 100% 29.98 in 10.0 miles ENE 5.8 mph - N/A   Overcast
12:29 AM 32.0°F 32.0°F 100% 29.97 in 10.0 miles ENE 4.6 mph - N/A   Overcast
12:36 AM 32.0°F 32.0°F 100% 29.97 in 10.0 miles ENE 3.5 mph - N/A   Overcast
12:41 AM 32.0°F 32.0°F 100% 29.97 in 10.0 miles ENE 4.6 mph - N/A   Overcast
12:56 AM 33.8°F 33.8°F 100% 29.97 in 10.0 miles ENE 3.5 mph - N/A   Overcast
12:58 AM 33.8°F 33.8°F 100% 30.03 in 10.0 miles ENE 2.3 mph - 0.00 in   Overcast
1:13 AM 32.0°F 32.0°F 100% 29.98 in 10.0 miles ENE 2.3 mph - N/A   Overcast
1:22 AM 33.8°F 33.8°F 100% 29.97 in 10.0 miles East 5.8 mph - N/A   Overcast
1:37 AM 33.8°F 33.8°F 100% 29.97 in 10.0 miles ENE 3.5 mph - N/A   Overcast
1:40 AM 33.8°F 33.8°F 100% 29.97 in 10.0 miles NE 3.5 mph - N/A   Overcast
1:45 AM 33.8°F 33.8°F 100% 29.96 in 10.0 miles ENE 4.6 mph - N/A   Overcast
1:58 AM 34.9°F 34.9°F 100% 30.02 in 10.0 miles NE 4.6 mph - 0.00 in   Overcast
2:13 AM 35.6°F 35.6°F 100% 29.97 in 2.5 miles NE 3.5 mph - N/A   Overcast
2:18 AM 35.6°F 35.6°F 100% 29.97 in 1.2 miles NE 3.5 mph - N/A   Overcast
2:23 AM 35.6°F 35.6°F 100% 29.97 in 0.8 miles North 2.3 mph - N/A   Mist
2:33 AM 35.6°F 35.6°F 100% 29.97 in 1.0 miles NNW 3.5 mph - N/A   Mist
2:43 AM 35.6°F 35.6°F 100% 29.96 in 1.8 miles ENE 3.5 mph - N/A   Overcast
2:47 AM 33.8°F 33.8°F 100% 29.96 in 7.0 miles East 5.8 mph - N/A   Overcast
2:52 AM 35.6°F 35.6°F 100% 29.95 in 1.5 miles East 9.2 mph - N/A   Overcast
2:57 AM 35.6°F 35.6°F 100% 29.95 in 0.8 miles East 6.9 mph - N/A   Mist
2:58 AM 35.6°F 35.6°F 100% 30.00 in 0.8 miles East 6.9 mph - 0.00 in   Mist
3:12 AM 35.6°F 35.6°F 100% 29.96 in 0.8 miles Calm Calm - N/A   Mist
3:22 AM 35.6°F 35.6°F 100% 29.95 in 1.0 miles SE 2.3 mph - N/A   Mist
3:27 AM 35.6°F 35.6°F 100% 29.95 in 1.2 miles Variable 2.3 mph - N/A   Overcast
3:32 AM 35.6°F 35.6°F 100% 29.95 in 1.2 miles Calm Calm - N/A   Overcast
3:37 AM 35.6°F 35.6°F 100% 29.95 in 1.5 miles ESE 3.5 mph - N/A   Overcast
3:42 AM 35.6°F 35.6°F 100% 29.95 in 1.8 miles East 3.5 mph - N/A   Overcast
3:47 AM 35.6°F 35.6°F 100% 29.95 in 2.0 miles East 3.5 mph - N/A   Overcast
3:52 AM 35.6°F 35.6°F 100% 29.94 in 2.5 miles ESE 3.5 mph - N/A   Overcast
3:58 AM 35.8°F 35.8°F 100% 30.00 in 2.5 miles ESE 5.8 mph - 0.00 in   Overcast
4:00 AM 35.6°F 35.6°F 100% 29.95 in 3.0 miles East 4.6 mph - N/A   Overcast
4:10 AM 35.6°F 35.6°F 100% 29.95 in 10.0 miles ESE 4.6 mph - N/A   Overcast
4:12 AM 35.6°F 35.6°F 100% 29.95 in 8.0 miles ESE 4.6 mph - N/A   Overcast
4:22 AM 35.6°F 35.6°F 100% 29.95 in 2.0 miles Calm Calm - N/A   Overcast
4:27 AM 35.6°F 35.6°F 100% 29.95 in 1.5 miles Calm Calm - N/A   Overcast
4:32 AM 35.6°F 35.6°F 100% 29.95 in 1.5 miles East 2.3 mph - N/A   Overcast
4:37 AM 35.6°F 35.6°F 100% 29.95 in 1.2 miles NE 2.3 mph - N/A   Overcast
4:42 AM 35.6°F 35.6°F 100% 29.94 in 1.2 miles ENE 2.3 mph - N/A   Overcast
4:45 AM 35.6°F 35.6°F 100% 29.94 in 1.0 miles ENE 3.5 mph - N/A   Mist
4:50 AM 35.6°F 35.6°F 100% 29.94 in 1.2 miles NE 3.5 mph - N/A   Overcast
4:58 AM 35.8°F 35.8°F 100% 30.00 in 1.2 miles ENE 4.6 mph - 0.00 in   Overcast
5:16 AM 35.6°F 35.6°F 100% 29.94 in 1.2 miles NE 4.6 mph - N/A   Overcast
5:21 AM 35.6°F 35.6°F 100% 29.94 in 1.2 miles NE 4.6 mph - N/A   Overcast
5:26 AM 35.6°F 35.6°F 100% 29.94 in 1.2 miles NE 4.6 mph - N/A   Overcast
5:31 AM 35.6°F 35.6°F 100% 29.94 in 1.5 miles NE 4.6 mph - N/A   Overcast
5:36 AM 35.6°F 35.6°F 100% 29.94 in 3.0 miles ENE 5.8 mph - N/A   Overcast
5:41 AM 35.6°F 35.6°F 100% 29.93 in 6.0 miles ENE 5.8 mph - N/A   Overcast
5:46 AM 35.6°F 35.6°F 100% 29.93 in 10.0 miles ENE 6.9 mph - N/A   Overcast
5:58 AM 35.1°F 35.1°F 100% 29.99 in 4.0 miles ENE 5.8 mph - 0.00 in   Overcast
6:03 AM 35.6°F 35.6°F 100% 29.93 in 4.0 miles NE 5.8 mph - N/A   Overcast
6:08 AM 35.6°F 35.6°F 100% 29.93 in 7.0 miles NE 4.6 mph - N/A   Overcast
6:43 AM 33.8°F 33.8°F 100% 29.93 in 10.0 miles NE 3.5 mph - N/A   Overcast
6:58 AM 34.3°F 34.3°F 100% 30.00 in 10.0 miles ENE 2.3 mph - N/A   Overcast
7:08 AM 33.8°F 33.8°F 100% 29.94 in 10.0 miles East 2.3 mph - N/A   Overcast
7:18 AM 33.8°F 33.8°F 100% 29.94 in 10.0 miles East 2.3 mph - N/A   Overcast
7:41 AM 33.8°F 33.8°F 100% 29.94 in 10.0 miles ENE 3.5 mph - N/A   Overcast
7:58 AM 33.6°F 33.6°F 100% 30.01 in 7.0 miles NNE 3.5 mph - 0.00 in   Mostly Cloudy
7:59 AM 32.0°F 32.0°F 100% 29.95 in 7.0 miles NNE 3.5 mph - N/A   Mostly Cloudy
8:33 AM 33.8°F 33.8°F 100% 29.95 in 10.0 miles ENE 5.8 mph - N/A   Scattered Clouds
8:47 AM 33.8°F 33.8°F 100% 29.95 in 10.0 miles NE 5.8 mph - N/A   Clear
8:51 AM 33.8°F 33.8°F 100% 29.95 in 10.0 miles NE 4.6 mph - N/A   Partly Cloudy
8:58 AM 34.5°F 34.5°F 100% 30.02 in 5.0 miles NE 3.5 mph - 0.00 in   Mostly Cloudy
9:03 AM 33.8°F 33.8°F 100% 29.96 in 7.0 miles NE 3.5 mph - N/A   Scattered Clouds
9:36 AM 35.6°F 35.6°F 100% 29.97 in 10.0 miles North 3.5 mph - N/A   Scattered Clouds
9:41 AM 35.6°F 35.6°F 100% 29.97 in 10.0 miles North 3.5 mph - N/A   Mostly Cloudy
9:52 AM 35.6°F 35.6°F 100% 29.97 in 10.0 miles North 3.5 mph - N/A   Mostly Cloudy
9:58 AM 35.8°F 35.8°F 100% 30.04 in 10.0 miles North 3.5 mph - 0.00 in   Mostly Cloudy
10:15 AM 35.6°F 35.6°F 100% 29.96 in 10.0 miles East 3.5 mph - N/A   Light Drizzle
10:25 AM 37.4°F 37.4°F 100% 29.96 in 10.0 miles Variable 4.6 mph - N/A   Light Drizzle
10:28 AM 37.4°F 37.4°F 100% 29.96 in 10.0 miles ENE 5.8 mph - N/A   Scattered Clouds
10:50 AM 39.2°F 39.2°F 100% 29.96 in 10.0 miles ESE 3.5 mph - N/A   Light Drizzle
10:58 AM 38.7°F 38.7°F 100% 30.01 in 10.0 miles SE 3.5 mph - 0.00 in   Light Drizzle
11:21 AM 39.2°F 39.2°F 100% 29.94 in 10.0 miles Variable 5.8 mph - N/A   Scattered Clouds
11:31 AM 41.0°F 41.0°F 100% 29.94 in 10.0 miles ESE 3.5 mph - N/A   Mostly Cloudy
11:56 AM 41.0°F 41.0°F 100% 29.94 in 10.0 miles ESE 4.6 mph - N/A   Mostly Cloudy
11:58 AM 41.9°F 41.7°F 99% 30.00 in 10.0 miles ESE 3.5 mph - 0.00 in   Mostly Cloudy
12:03 PM 41.0°F 41.0°F 100% 29.94 in 10.0 miles East 2.3 mph - N/A   Mostly Cloudy
12:59 PM 42.8°F 42.8°F 100% 29.99 in 10.0 miles ESE 3.5 mph - N/A   Overcast
1:27 PM 42.8°F 42.8°F 100% 29.93 in 10.0 miles SE 5.8 mph - N/A   Overcast
1:42 PM 42.8°F 42.8°F 100% 29.93 in 10.0 miles South 4.6 mph - N/A   Overcast
1:47 PM 42.8°F 42.8°F 100% 29.93 in 10.0 miles South 3.5 mph - N/A   Overcast
1:58 PM 43.7°F 43.7°F 100% 29.98 in 10.0 miles South 5.8 mph - 0.00 in   Overcast
2:18 PM 42.8°F 42.8°F 100% 29.92 in 10.0 miles South 3.5 mph - N/A   Scattered Clouds
2:58 PM 43.3°F 43.3°F 100% 29.98 in 10.0 miles South 2.3 mph - N/A   Overcast
3:58 PM 41.5°F 41.5°F 100% 29.98 in 10.0 miles NNE 4.6 mph - N/A   Partly Cloudy
4:28 PM 39.2°F 39.2°F 100% 29.93 in 10.0 miles North 5.8 mph - N/A   Mostly Cloudy
4:50 PM 39.2°F 39.2°F 100% 29.93 in 10.0 miles North 4.6 mph - N/A   Overcast
4:58 PM 38.7°F 38.7°F 100% 29.99 in 10.0 miles North 4.6 mph - 0.00 in   Overcast
4:59 PM 39.2°F 39.2°F 100% 29.92 in 10.0 miles NNE 4.6 mph - N/A   Overcast
5:24 PM 37.4°F 37.4°F 100% 29.92 in 10.0 miles NNE 5.8 mph - N/A   Scattered Clouds
5:58 PM 37.6°F 37.6°F 100% 29.98 in 10.0 miles NNE 3.5 mph - 0.00 in   Partly Cloudy
6:32 PM 37.4°F 37.4°F 100% 29.92 in 10.0 miles ENE 2.3 mph - N/A   Scattered Clouds
6:41 PM 35.6°F 35.6°F 100% 29.92 in 10.0 miles East 2.3 mph - N/A   Partly Cloudy
6:58 PM 34.9°F 34.9°F 100% 29.98 in 4.0 miles ESE 2.3 mph - 0.00 in   Clear
7:58 PM 35.2°F 35.2°F 100% 29.98 in 10.0 miles NNE 3.5 mph - N/A   Clear
8:58 PM 33.3°F 33.3°F 100% 29.98 in 9.0 miles ENE 5.8 mph - N/A   Clear
9:16 PM 32.0°F 32.0°F 100% 29.91 in 10.0 miles NE 5.8 mph - N/A   Scattered Clouds
9:32 PM 33.8°F 33.8°F 100% 29.91 in 10.0 miles ENE 6.9 mph - N/A   Mostly Cloudy
9:58 PM 35.2°F 35.2°F 100% 29.96 in 10.0 miles NE 8.1 mph - 0.00 in   Overcast
10:58 PM 35.8°F 35.8°F 100% 29.96 in 10.0 miles NNE 8.1 mph - N/A   Overcast
11:58 PM 34.2°F 34.2°F 100% 29.96 in 10.0 miles NNE 8.1 mph - N/A   Overcast
Moon Phase
Nov. 16 Nov. 20 Nov. 28 Dec. 06 Dec. 13
Sunrise:06:58 AM (PST) Moon Rise:10:00 AM (PST)11/16
Sunset:04:12 PM (PST) Moon Set:07:14 PM (PST)11/16

Copyright © 2014 The Weather Underground, Inc.